Lapse_Rate
7.2 6.5 6.5 6.5 6.5 6.5 6.5 6.5 6.5 6.5 6.5 6.5 6.5 6.5 6.5 7.1 7.3 7.2 7.5 7.7 7.9 8.2 8.7 9.0 9.2 9.3 9.4 9.4 9.4 9.5 9.5 9.7 9.8 9.7 9.6 9.6 9.5 9.7 9.7 9.3 9.4 9.2 9.1 9.3
6.5 6.5 6.5 6.5 6.5 6.5 6.5 6.5 6.5 6.5 6.5 6.5 6.5 6.5 6.5 6.8 7.0 7.4 7.5 7.6 7.9 8.2 8.5 8.8 9.0 9.2 9.3 9.4 9.4 9.3 9.5 9.5 9.4 9.1 8.7 8.7 9.3 9.1 8.9 9.5 9.6 9.4 9.4 9.4
6.5 6.5 6.7 6.5 6.5 6.5 6.5 6.5 6.5 6.5 6.5 6.5 6.5 6.5 6.5 6.6 7.1 7.4 7.8 7.9 8.1 8.1 8.2 8.5 8.7 9.0 9.2 9.2 9.3 9.4 9.5 9.0 9.7 8.1 9.3 9.6 9.7 9.6 9.6 9.7 9.7 9.6 9.5 9.6
6.5 6.7 6.5 6.5 6.5 6.5 6.5 6.5 6.5 6.5 6.5 6.5 6.5 6.5 6.5 6.5 6.5 6.8 7.4 7.7 7.9 8.1 8.4 8.6 8.6 8.8 9.1 9.2 9.0 7.7 8.9 8.6 9.2 7.6 8.0 8.7 9.0 8.9 9.3 9.6 9.6 9.6 9.5 9.6
6.5 6.5 6.5 6.5 6.5 6.5 6.5 6.5 6.5 6.5 6.5 6.5 6.5 6.5 6.5 6.5 6.5 6.5 7.0 7.5 7.9 8.2 8.3 8.4 8.7 8.8 9.1 9.3 8.8 8.6 8.1 7.5 7.3 7.0 6.9 7.2 9.1 9.4 9.6 9.6 9.3 9.7 9.7 9.6
6.5 7.2 6.6 6.5 6.5 6.5 6.5 6.5 6.5 6.5 6.5 6.5 6.5 6.5 6.5 6.5 6.5 6.5 7.0 7.5 7.8 8.1 8.3 8.6 8.8 9.0 9.0 8.9 7.7 6.8 7.8 8.3 7.5 6.8 7.0 6.9 6.9 8.0 8.4 8.8 9.2 9.5 9.7 9.7
6.5 6.5 6.6 6.9 6.5 6.5 6.5 6.5 6.5 6.5 6.5 6.5 6.5 6.5 6.5 6.5 6.5 6.6 6.7 7.3 7.8 8.1 8.3 8.3 8.5 8.6 8.8 8.9 7.7 7.3 7.3 8.0 8.3 7.3 7.1 7.1 6.9 6.9 7.6 8.9 9.2 8.8 9.4 9.6
6.5 6.5 6.5 6.6 6.5 6.5 6.5 6.5 6.5 6.5 6.5 6.5 6.5 6.5 6.5 6.5 7.0 7.2 7.3 7.5 7.8 7.9 8.2 8.3 8.4 8.6 8.7 8.9 8.5 8.4 8.6 8.7 8.3 8.3 7.5 7.1 6.9 7.4 7.9 8.9 7.8 7.8 9.0 9.4
6.5 6.5 6.5 6.5 6.6 6.5 6.5 6.5 6.5 6.5 6.5 6.5 6.5 6.5 6.5 6.5 6.5 6.9 7.1 7.4 7.5 7.8 8.1 8.2 8.5 8.7 8.8 8.9 8.7 8.2 8.0 8.5 8.7 8.2 7.4 6.9 7.3 7.5 7.3 7.2 7.3 8.1 8.6 9.2
6.5 6.5 6.5 6.5 6.8 6.7 6.5 6.5 6.5 6.5 6.5 6.5 6.5 6.5 6.5 6.5 6.5 6.5 6.7 7.1 7.5 7.8 8.0 8.2 8.5 8.6 8.9 9.0 9.1 9.0 8.4 8.4 7.9 7.3 6.8 7.5 7.3 7.2 7.1 7.0 7.3 8.2 8.4 8.5
6.5 6.5 6.5 6.5 6.5 6.5 6.5 6.5 6.5 6.5 6.5 6.5 6.5 6.5 6.5 6.5 6.5 6.5 6.8 7.2 7.5 7.7 8.0 8.2 8.5 8.7 8.9 9.0 9.1 8.6 7.3 7.1 7.6 7.0 7.0 7.0 6.7 7.1 7.1 7.3 7.9 8.5 8.3 8.5
6.5 6.5 6.5 6.5 6.5 6.5 6.5 6.5 6.5 6.5 6.5 6.5 6.5 6.5 6.5 6.5 6.6 6.8 6.9 7.3 7.7 7.9 8.0 8.3 8.5 8.7 8.8 8.8 8.8 8.3 7.9 7.9 7.7 7.8 7.4 7.3 6.9 7.0 7.1 8.1 8.7 8.1 7.9 7.9
6.5 6.5 6.5 6.5 6.5 6.5 6.5 6.5 6.5 6.5 6.5 6.5 6.5 6.5 6.5 6.7 6.7 7.0 7.0 7.4 7.6 7.9 8.0 8.3 8.4 8.5 8.7 8.8 8.9 8.8 8.9 8.3 8.1 7.5 6.9 6.6 6.5 7.2 7.4 7.7 7.6 7.3 7.3 7.3
6.4 6.5 6.5 6.5 6.5 6.5 6.5 6.5 6.5 6.5 6.5 6.5 6.5 6.5 6.5 6.5 6.5 6.8 7.1 7.4 7.6 7.8 7.9 8.1 8.2 8.5 8.7 8.8 8.8 8.7 8.6 8.8 7.5 7.0 6.6 7.0 6.8 7.0 6.8 6.9 6.7 6.6 6.7 6.6
6.5 6.5 6.5 6.5 6.5 6.5 6.5 6.5 6.5 6.5 6.5 6.5 6.5 6.5 6.5 6.5 6.5 6.9 7.2 7.4 7.5 7.6 7.8 8.0 8.1 8.3 8.6 8.7 8.8 8.9 8.1 7.8 7.2 6.3 6.2 6.4 6.6 6.4 6.3 6.2 6.3 6.3 6.2 6.4
6.6 6.5 6.5 6.5 6.5 6.5 6.5 6.5 6.5 6.5 6.5 6.5 6.5 6.5 6.5 7.0 7.2 7.0 7.2 7.3 7.2 7.5 7.7 7.9 8.2 8.3 8.5 8.6 8.7 8.6 7.5 6.3 6.4 5.9 5.9 6.8 6.6 6.1 5.7 5.7 5.8 5.9 5.9 6.4
6.5 6.5 6.5 6.5 6.5 6.5 6.5 6.5 6.5 6.5 6.5 6.5 6.5 6.5 6.5 6.5 6.6 6.9 7.2 7.3 7.3 7.6 7.8 8.0 8.0 8.0 8.4 8.5 8.2 7.8 6.6 6.4 5.7 5.6 5.8 6.1 5.9 5.5 5.5 5.6 5.5 5.6 5.8 6.5
6.5 6.5 6.5 6.5 6.5 6.5 6.5 6.5 6.5 6.5 6.5 6.5 6.5 6.5 6.6 6.8 7.2 7.4 7.6 7.6 7.6 7.7 7.9 8.1 7.9 7.1 7.5 8.3 7.8 6.8 6.4 5.8 5.4 5.1 5.5 6.0 5.9 5.4 5.7 5.7 5.6 6.0 6.4 6.2
6.7 6.5 6.5 6.5 6.5 6.5 6.5 6.5 6.5 6.5 6.5 6.5 6.5 6.5 6.9 7.2 7.3 7.1 7.4 7.9 7.9 8.1 8.1 8.3 8.2 7.2 6.8 7.3 6.9 5.8 5.6 5.4 5.3 4.8 5.0 5.7 5.7 5.5 5.6 5.5 5.6 6.1 6.4 6.3
6.5 6.5 6.5 6.5 6.5 6.5 6.5 6.5 7.0 6.6 6.5 6.6 6.7 6.6 6.7 7.0 6.5 6.5 5.4 5.2 5.9 7.6 8.3 7.7 8.1 7.9 7.1 6.6 6.3 5.4 4.8 4.8 4.5 4.5 4.6 5.4 5.6 5.5 5.6 5.6 5.5 5.9 6.0 5.9
6.5 6.5 6.5 6.5 6.5 6.5 6.5 6.8 7.1 6.5 6.5 6.9 7.1 7.0 6.9 6.5 7.0 7.6 6.4 6.6 5.3 5.0 6.2 6.1 6.8 6.8 6.4 6.6 5.2 4.4 5.0 4.3 4.4 4.7 4.5 4.8 5.1 4.8 5.3 5.6 5.6 5.7 5.7 6.0
6.5 6.5 6.5 6.5 6.5 6.5 6.9 6.7 6.5 6.7 7.1 7.2 7.3 7.3 7.0 7.3 7.2 7.5 6.6 5.7 4.9 3.8 3.7 3.7 4.7 5.6 6.3 6.0 4.7 4.0 4.2 5.1 5.1 4.9 4.2 4.1 4.5 4.9 5.2 5.0 5.2 5.6 5.7 5.8
6.5 6.5 6.5 6.5 6.5 6.7 7.2 7.0 7.5 6.3 6.9 7.3 6.8 7.3 7.4 7.3 6.2 6.3 6.6 5.6 5.5 4.4 3.7 3.6 3.5 4.3 5.3 5.2 3.9 3.6 3.7 5.4 5.1 4.6 4.0 4.0 4.5 4.9 5.0 5.0 5.2 5.7 6.3 6.5
6.5 6.8 6.5 6.5 6.5 6.7 7.2 7.5 7.7 7.5 6.8 6.7 7.1 7.0 6.0 5.8 6.4 5.8 5.8 5.5 5.2 4.4 3.4 3.4 2.7 3.4 3.5 4.1 3.5 3.1 4.6 4.8 4.8 4.3 4.0 4.3 4.8 4.8 5.0 5.4 5.4 5.8 6.4 6.8
6.6 6.6 6.5 6.5 6.6 7.0 7.2 7.5 7.7 7.8 7.1 6.7 6.7 7.2 5.6 5.5 5.7 6.6 6.0 5.6 5.6 4.7 3.7 3.0 2.8 2.3 3.0 2.9 2.7 3.1 4.2 4.6 4.0 4.1 4.6 5.0 5.2 5.0 4.9 5.5 5.4 5.8 6.2 6.5
6.9 6.5 6.5 6.5 6.9 6.9 7.1 7.6 7.6 7.7 7.7 8.0 7.9 7.4 7.6 7.4 6.0 5.8 5.7 6.0 5.3 4.7 3.6 2.4 2.3 1.9 2.0 2.9 1.7 2.2 3.1 3.9 3.4 4.1 5.1 5.1 5.2 4.9 5.0 5.0 5.8 4.9 4.6 5.1
Wind_Speed
2 7 3 7 4 5 5 5 6 3 2 6 11 11 7 12 12 12 12 12 12 11 9 7 7 6 4 3 2 2 3 5 4 4 5 4 4 4 5 7 10 11 12 13
6 5 6 3 2 4 4 6 3 3 1 4 8 11 10 11 14 14 13 13 13 12 10 10 8 7 5 3 2 2 2 3 4 4 4 4 4 4 4 6 8 10 10 11
8 5 3 2 4 7 5 6 4 4 4 10 9 8 8 9 11 12 14 13 14 14 13 11 10 8 6 5 3 2 1 2 2 3 3 4 3 3 3 5 5 9 10 11
3 3 3 4 7 5 9 3 2 4 4 3 3 2 10 11 11 13 14 15 15 14 12 10 9 8 7 5 4 4 3 2 2 2 3 3 3 4 3 4 5 7 8 9
4 2 3 6 3 3 5 3 5 5 7 7 7 4 8 8 10 13 15 16 16 14 14 12 11 10 8 7 7 5 4 3 3 3 3 3 4 3 3 4 6 5 7 7
2 1 1 4 1 1 1 7 7 4 5 5 7 3 8 7 6 7 12 14 15 15 14 13 11 10 9 8 7 6 6 5 4 4 4 4 5 5 4 4 5 5 4 6
5 4 2 1 4 3 4 7 3 4 4 3 3 4 4 9 6 6 10 13 14 15 14 13 12 11 10 10 9 7 7 7 6 6 5 5 5 5 6 5 4 6 5 5
6 5 4 2 2 4 2 4 4 5 3 5 3 5 3 6 6 6 5 8 13 14 14 14 13 12 11 11 10 9 8 8 6 6 5 4 5 4 4 5 5 5 5 6
3 2 3 2 1 2 3 2 3 5 2 4 4 4 6 6 8 8 10 10 12 15 15 15 14 13 12 11 11 10 10 8 7 6 5 6 6 6 5 6 6 5 7 7
3 3 1 2 2 2 3 3 3 4 4 4 4 5 3 10 13 12 13 14 13 15 15 14 14 14 12 11 11 10 9 9 8 7 6 5 6 5 6 6 7 7 7 9
2 2 4 2 6 1 4 3 4 3 3 4 5 0 5 6 10 12 13 14 14 16 16 15 14 13 13 12 12 11 11 10 9 8 7 6 6 6 6 6 7 7 8 9
4 2 4 1 3 2 4 3 4 2 2 2 3 7 0 1 5 6 9 12 14 13 16 15 14 14 14 13 13 12 11 10 9 8 7 6 6 6 7 7 7 8 8 10
5 5 3 5 3 2 5 5 6 1 1 7 3 5 1 3 5 7 9 11 13 15 16 16 15 15 15 14 13 12 11 11 9 8 8 7 7 6 7 6 6 7 8 8
1 3 7 7 6 2 4 7 10 10 5 7 13 20 17 11 11 11 12 12 14 15 17 16 16 16 15 15 14 14 12 11 10 9 8 8 7 6 6 6 7 7 7 8
3 6 9 11 9 6 9 10 12 14 21 12 19 17 19 19 19 17 13 13 14 15 17 17 16 16 16 15 14 13 13 12 11 10 9 9 8 6 6 6 6 6 7 7
5 4 3 11 9 10 12 14 15 19 20 19 21 24 21 14 9 11 13 12 15 17 17 18 17 17 17 16 15 14 13 13 12 11 10 9 8 7 7 6 6 6 7 6
6 5 4 12 0 4 10 19 17 11 11 10 10 13 12 16 14 11 10 11 14 16 16 17 17 16 15 15 14 14 14 13 12 12 11 10 9 9 8 7 7 6 7 6
7 10 3 7 10 11 7 1 3 12 10 12 17 18 16 18 16 12 12 11 12 13 15 15 14 14 15 14 14 14 13 13 13 12 12 11 10 9 8 8 8 7 6 6
6 8 3 5 10 16 18 4 5 5 1 2 7 10 13 10 8 3 6 10 11 9 10 12 13 12 13 14 14 13 14 13 13 13 12 11 10 10 9 9 8 7 6 6
5 6 5 5 4 7 2 4 3 2 6 4 2 6 9 7 5 4 7 6 6 7 6 9 11 14 14 14 14 14 14 14 14 13 12 11 10 10 9 8 8 7 7 7
5 6 9 11 8 10 8 8 5 5 2 2 2 2 4 4 5 11 9 8 5 6 7 7 10 11 13 13 14 15 14 15 12 11 11 11 11 10 9 8 7 7 7 7
10 10 6 7 6 12 9 6 6 2 4 1 4 5 7 9 10 11 10 9 6 4 5 8 9 11 12 13 13 14 15 12 11 11 11 11 11 9 8 8 7 7 7 7
9 9 5 11 8 2 11 7 5 1 1 4 4 6 8 11 9 9 9 8 6 5 6 8 10 10 11 12 14 14 12 12 12 12 12 12 11 10 9 8 7 6 7 6
10 6 4 10 12 15 14 13 11 10 9 8 8 8 7 8 9 8 6 7 7 6 7 8 10 11 11 12 13 13 12 12 12 13 13 11 11 10 8 6 6 6 6 5
7 7 7 13 14 15 15 13 9 6 6 8 11 10 7 7 9 9 8 7 7 6 7 9 11 10 11 11 12 12 12 13 11 12 11 11 9 10 8 8 6 6 7 5
9 12 10 11 12 7 11 4 6 8 11 12 12 10 7 8 10 9 10 8 7 7 7 9 10 11 11 12 12 13 12 13 12 11 9 8 7 7 7 6 5 11 11 8
Wind_Direction
175 266 278 8 354 338 318 303 296 98 112 274 252 258 242 192 212 217 211 213 210 213 197 181 196 203 220 233 243 291 326 357 352 352 360 347 1 360 7 359 353 356 354 353
228 248 50 40 312 290 283 292 310 111 164 254 282 265 243 209 209 216 219 217 215 210 198 196 203 210 213 243 227 256 314 345 350 346 352 338 334 346 327 357 346 351 347 349
292 49 99 278 272 279 247 289 332 317 304 244 277 253 196 216 209 210 223 223 219 212 209 205 199 210 205 221 207 251 276 312 329 345 323 321 288 272 348 349 345 346 347 350
348 81 256 260 280 311 290 70 296 293 291 344 217 341 193 171 208 215 218 219 217 209 210 206 199 209 208 206 186 211 226 261 317 314 305 328 310 320 337 326 334 336 349 347
76 193 247 263 19 337 11 302 280 281 269 298 191 256 117 169 219 212 213 210 210 204 203 204 197 200 203 194 202 207 207 221 233 268 279 295 302 309 318 322 324 332 337 335
55 110 299 4 77 4 24 267 245 250 251 232 125 271 165 183 209 167 185 200 199 203 197 202 198 194 198 193 202 206 216 224 229 235 247 269 287 307 312 322 315 330 322 324
165 172 122 248 250 186 238 271 239 202 211 11 124 255 304 138 148 167 181 190 193 194 195 195 196 199 203 199 201 207 215 226 222 229 237 250 272 292 287 303 312 317 322 327
268 218 188 124 313 340 297 320 308 299 314 342 168 229 137 132 135 153 165 188 187 193 196 197 201 201 202 205 206 211 218 225 229 233 242 250 256 269 284 281 302 304 309 314
282 142 119 34 325 304 111 249 2 296 231 267 220 209 155 175 184 192 200 195 201 195 197 199 201 203 206 206 207 209 215 225 233 233 240 246 250 256 277 285 291 295 305 310
37 259 202 111 243 184 268 348 247 191 303 285 216 276 269 202 218 199 208 207 207 200 199 200 202 202 204 206 204 209 219 223 223 225 236 245 255 266 274 275 282 296 298 307
243 238 121 201 203 171 164 199 214 289 265 302 311 242 15 176 195 201 207 207 202 200 202 202 203 201 202 203 203 206 211 219 223 222 235 240 253 263 275 279 287 293 303 301
167 287 259 31 92 356 301 292 243 254 163 237 283 275 262 63 180 200 196 196 200 200 198 202 203 201 200 204 205 208 212 215 218 223 230 240 254 266 272 279 291 297 299 304
165 200 254 177 178 178 235 205 244 184 215 238 268 265 97 211 226 226 231 198 197 198 199 200 201 204 203 203 204 210 211 214 215 216 223 231 246 257 271 284 293 296 303 305
301 274 259 280 357 89 196 202 215 218 222 251 234 274 285 258 235 236 230 227 202 200 201 202 203 205 206 206 204 203 208 207 208 215 223 230 242 251 265 280 287 291 297 298
241 263 265 270 281 239 261 253 208 211 231 259 272 276 288 296 300 281 239 228 221 206 205 206 205 206 205 206 205 204 204 203 204 210 217 225 232 239 255 264 273 281 287 294
195 259 266 277 267 258 257 260 248 232 252 263 269 278 281 292 325 297 259 237 221 220 212 209 208 209 206 203 205 204 202 203 200 209 217 221 225 232 241 253 263 270 276 280
186 221 244 273 22 274 268 243 235 227 226 241 255 265 322 315 302 289 286 258 234 225 217 211 207 206 207 201 197 202 203 200 203 209 213 215 217 227 233 241 251 256 265 279
212 217 221 274 279 264 269 107 308 234 247 244 265 286 298 306 298 285 278 273 256 230 225 214 206 203 203 200 196 197 197 202 204 209 215 216 218 225 230 238 247 252 258 266
235 208 225 237 250 278 296 221 174 172 31 137 262 297 313 324 303 349 347 244 263 266 226 223 205 200 197 196 193 194 196 200 203 210 215 216 218 224 227 235 244 250 257 264
207 257 235 179 240 258 44 137 168 190 241 136 175 320 332 330 339 40 11 2 326 261 251 211 201 196 197 192 189 194 197 199 204 208 211 215 217 224 228 235 242 251 256 263
185 194 212 225 243 263 288 152 166 239 337 101 303 335 296 287 303 317 320 309 325 293 226 208 203 197 198 188 187 197 202 207 203 200 206 212 213 219 229 238 244 249 256 265
176 174 187 207 220 252 144 126 216 98 123 259 300 310 286 288 303 307 308 301 298 274 225 206 205 204 198 189 191 200 208 201 200 200 202 208 213 216 220 229 238 242 250 261
230 211 197 196 207 156 186 247 230 348 301 300 276 300 309 303 303 310 310 304 286 258 227 210 215 207 205 196 196 205 206 198 192 199 206 210 214 216 220 228 231 238 244 250
209 226 239 243 238 255 249 228 242 256 259 268 282 295 298 290 299 306 313 299 281 246 228 211 209 216 208 202 201 211 200 193 194 202 206 209 214 214 219 223 226 234 238 244
259 173 231 250 261 281 269 246 228 248 254 273 287 287 262 264 280 297 299 296 277 251 221 215 214 218 217 199 204 207 206 188 197 203 206 209 212 213 221 220 219 224 231 240
218 240 236 247 263 297 283 132 185 280 286 286 281 278 266 273 279 291 286 289 277 253 226 215 220 216 213 206 203 200 202 194 193 203 207 204 205 209 214 221 226 212 236 252